STARLINK-2745, 48671

Orbit data source: Space-Track

STARLINK-2745, 48671 is a payload satellite owned by SpaceX/Seattle (US) in LEO that was launched on Wed, 26 May 2021 UTC via an FALCON 9 launch vehicle from the Air Force Eastern Test Range (AFETR). Payload-class satellites include a variety of spacecraft equipped with specific instruments for various scientific and technological missions. These include communications satellites like Starlink; space stations such as the ISS; scientific satellites like the Hubble; Earth observation satellites from companies like Planet Labs, Umbra, and HawkEye 360; GPS; miniature CubeSats for education and research; and military/defense satellites.

Loading next visibility...
Identifier
48671, 2021-044AK
Orbit
LEO
Country
Flag of USUS
Related business
Manufacturer
SpaceX/Seattle
Mission
Operational Commercial Communications
Bus & Motor
STARLINK, Unknown motor
Mass
260 kg wet, ~248 kg dry
Launch date (UTC)
2021-05-26 (5 years ago)
Launch vehicle
FALCON 9
Launch site
Air Force Eastern Test Range (AFETR)
Object type
Payload
Rocket body
Debris
Shape & HBR
Box + 1 Pan, 10.1 m
Radar Cross Section
13.562 m², Large (>1 m²)

Expand to show TLE details & history
Last TLE update: 12 hours ago

TLE from 12 hours ago
0 STARLINK-2745
1 48671U 21044AK  25349.65959301  .00001281  00000-0  10491-3 0  9998
2 48671  53.0550 129.1531 0001465  88.3948 271.7209 15.06396329251172
Epoch: 2025-12-15T15:49Z
TLE epoch observation values (Epoch: 2025-12-15T15:49:48.836Z)
Latitude
0.00002°
Longitude
167.14465°
Altitude
548.072 km
Speed
7.589 km/s
True Right ascension
08h 36m 36s
True Declination
0° 00' 00"
Sunlit
Object was in full shadow at epoch
Visualization orbit readout
Latitude
Unknown
Longitude
Unknown
Altitude
Unknown
Speed
Unknown
Apparent Right ascension
Unknown
Apparent Declination
Unknown
Sunlit
N/A
Visualization observer readout
Local Sidereal Time
02:35:34
Azimuth
Unknown
Elevation
Unknown
Doppler factor
Unknown
Orbital elements
Apogee altitude
548.508 km
Perigee altitude
546.479 km
Semi-major axis
6,925.63 km
Eccentricity
0.00015
Inclination
53.055°
RAAN
129.1531°
Arg. of periapsis
88.3948°
True anomaly
271.70412°
Mean anomaly
271.7209°
Eccentric anomaly
271.71251°
Mean motion
3.76577 °/min
Orbital period
95.6 mins
BSTAR
0.00010491
Loading maneuver chart data...
Computing Atmospheric mass density...
Loading historical data...
Loading historical data...
Loading historical data...
Loading historical data...
Loading historical data...
Loading historical data...
Loading historical data...

Documentation

Showing up to 5 results
|